Weather History for PANC - November, 2012

Change the Weather History Date:

Saturday, November 17, 2012

  Actual Average Record
Temperature  
Mean Temperature 16 °F 21 °F  
Max Temperature 18 °F 27 °F 44 °F (1964)
Min Temperature 13 °F 16 °F -21 °F (1956)
Degree Days  
Heating Degree Days 49    
Month to date heating degree days 713  
Since 1 July heating degree days 2756  
Cooling Degree Days 0    
Month to date cooling degree days 0  
Year to date cooling degree days 0  
Moisture  
Dew Point 1 °F    
Average Humidity 51    
Maximum Humidity 58    
Minimum Humidity 43    
Precipitation  
Precipitation 0.00 in 0.04 in 0.70 in (1916)
Month to date precipitation 0.23 0.66  
Year to date precipitation 19.65 14.97  
Snow  
Snow 0.00 in 0.50 in 5.80 in (1990)
Month to date snowfall 3.3 6.6  
Since 1 July snowfall 6.7 14.9  
Since 1 September snowfall 6.7 14.9  
Snow Depth 2.00 in    
Sea Level Pressure  
Sea Level Pressure 29.24 in    
Wind  
Wind Speed 13 mph (North)    
Max Wind Speed 16 mph    
Max Gust Speed 24 mph    
Visibility 10 miles    
Events      
T = Trace of Precipitation, MM = Missing Value Source: NWS Daily Summary

Daily Weather History Graph

Daily Weather History Graph

Search for Another Location

Airport or City:

Trip Planner

Search our weather history database for the weather conditions in past years. The results will help you decide how hot, cold, wet, or windy it might be!

Date:

Astronomy

Nov. 17, 2012 Rise Set
Actual Time 9:12 AM AKST 4:16 PM AKST
Civil Twilight 8:20 AM AKST 5:09 PM AKST
Nautical Twilight 7:25 AM AKST 6:03 PM AKST
Astronomical Twilight 6:34 AM AKST 6:55 PM AKST
Moon 1:02 PM AKST (11/17) 8:46 PM AKST (11/17)
Length of Visible Light 8h 49m
Length of Day
7h 03m
Waxing Crescent, 21% of the Moon is Illuminated
Nov 17
Waxing Crescent
Nov 20
First Quarter
Nov 28
Full
Dec 6
Last Quarter
Dec 12
New

Hourly Weather History & Observations

Time (AKST) Temp. Windchill Dew Point Humidity Pressure Visibility Wind Dir Wind Speed Gust Speed Precip Events Conditions
12:53 AM 19.0 °F 4.5 °F 1.9 °F 47% 29.45 in 10.0 mi North 16.1 mph - N/A   Clear
1:53 AM 18.0 °F 6.9 °F 1.0 °F 48% 29.43 in 10.0 mi NNE 9.2 mph - N/A   Clear
2:53 AM 18.0 °F 4.8 °F 1.9 °F 50% 29.42 in 10.0 mi North 12.7 mph - N/A   Partly Cloudy
3:53 AM 17.1 °F 3.6 °F -2.0 °F 43% 29.40 in 10.0 mi North 12.7 mph 19.6 mph N/A   Partly Cloudy
4:53 AM 18.0 °F 5.4 °F 1.0 °F 48% 29.39 in 10.0 mi NNW 11.5 mph - N/A   Scattered Clouds
5:53 AM 16.0 °F 2.9 °F -0.9 °F 47% 29.36 in 10.0 mi North 11.5 mph - N/A   Scattered Clouds
6:53 AM 16.0 °F 2.9 °F -0.0 °F 49% 29.34 in 10.0 mi North 11.5 mph 19.6 mph N/A   Scattered Clouds
7:53 AM 16.0 °F 3.6 °F -0.9 °F 47% 29.32 in 10.0 mi North 10.4 mph 20.7 mph N/A   Scattered Clouds
8:53 AM 15.1 °F 1.1 °F -0.9 °F 49% 29.31 in 10.0 mi North 12.7 mph 21.9 mph N/A   Mostly Cloudy
9:53 AM 16.0 °F 2.3 °F -0.0 °F 49% 29.29 in 10.0 mi North 12.7 mph 20.7 mph N/A   Mostly Cloudy
10:53 AM 16.0 °F 1.7 °F -0.0 °F 49% 29.26 in 10.0 mi North 13.8 mph - N/A   Mostly Cloudy
11:53 AM 17.1 °F 3.0 °F 1.0 °F 50% 29.24 in 10.0 mi North 13.8 mph 20.7 mph N/A   Mostly Cloudy
12:53 PM 17.1 °F 2.0 °F 1.0 °F 50% 29.22 in 10.0 mi North 16.1 mph 20.7 mph N/A   Mostly Cloudy
1:53 PM 18.0 °F 3.6 °F -0.0 °F 45% 29.20 in 10.0 mi North 15.0 mph 24.2 mph N/A   Mostly Cloudy
2:53 PM 18.0 °F 6.1 °F 1.9 °F 50% 29.17 in 10.0 mi North 10.4 mph 20.7 mph N/A   Mostly Cloudy
3:53 PM 19.0 °F 7.5 °F 1.0 °F 46% 29.15 in 10.0 mi North 10.4 mph - N/A   Mostly Cloudy
4:53 PM 18.0 °F 3.1 °F -0.0 °F 45% 29.13 in 10.0 mi North 16.1 mph 23.0 mph N/A   Mostly Cloudy
5:53 PM 18.0 °F 4.2 °F 1.9 °F 50% 29.12 in 10.0 mi North 13.8 mph - N/A   Mostly Cloudy
6:53 PM 17.1 °F 4.3 °F -0.0 °F 47% 29.11 in 10.0 mi North 11.5 mph - N/A   Mostly Cloudy
7:53 PM 16.0 °F 2.3 °F -0.9 °F 47% 29.11 in 10.0 mi North 12.7 mph - N/A   Mostly Cloudy
8:53 PM 16.0 °F 2.3 °F 1.9 °F 54% 29.10 in 10.0 mi North 12.7 mph - N/A   Mostly Cloudy
9:53 PM 15.1 °F -0.1 °F 1.9 °F 56% 29.10 in 10.0 mi North 15.0 mph - N/A   Mostly Cloudy
10:53 PM 14.0 °F -0.2 °F 1.9 °F 59% 29.09 in 10.0 mi NNW 12.7 mph - N/A   Mostly Cloudy
11:53 PM 17.1 °F 5.0 °F 1.0 °F 50% 29.09 in 10.0 mi North 10.4 mph 21.9 mph N/A   Overcast